EN

Hourly Weather Alia

Today, 16 January, Saturday

Time Temperature Precipitation Wind Pressure Humidity
00:00 +5°C° 0.4 mm 4 mps 703 mmHg 91%
01:00 +5°C° 0 mm 5 mps 702 mmHg 93%
02:00 +5°C° 0.2 mm 5 mps 703 mmHg 93%
03:00 +5°C° 0.2 mm 4 mps 703 mmHg 92%
04:00 +5°C° 0.2 mm 4 mps 703 mmHg 92%
05:00 +4°C° 0.1 mm 3 mps 704 mmHg 92%
06:00 +4°C° 0.1 mm 3 mps 704 mmHg 91%
07:00 +5°C° 0 mm 2 mps 704 mmHg 91%
08:00 +6°C° 0 mm 2 mps 705 mmHg 86%
09:00 +6°C° 0 mm 2 mps 705 mmHg 80%
10:00 +7°C° 0 mm 2 mps 706 mmHg 75%
11:00 +7°C° 0.1 mm 3 mps 706 mmHg 72%
12:00 +7°C° 0.1 mm 3 mps 706 mmHg 70%
13:00 +8°C° 0 mm 3 mps 706 mmHg 73%
14:00 +7°C° 0.1 mm 3 mps 706 mmHg 73%
15:00 +7°C° 0.1 mm 3 mps 706 mmHg 73%
16:00 +6°C° 0.1 mm 4 mps 706 mmHg 73%
17:00 +4°C° 0 mm 3 mps 707 mmHg 77%
18:00 +3°C° 0 mm 3 mps 707 mmHg 80%
19:00 +2°C° 0 mm 3 mps 707 mmHg 84%
20:00 +2°C° 0 mm 3 mps 708 mmHg 84%
21:00 +2°C° 0 mm 3 mps 708 mmHg 84%
22:00 +1°C° 0 mm 3 mps 709 mmHg 84%
23:00 +2°C° 0 mm 2 mps 709 mmHg 83%

Tomorrow, 17 January, Sunday

Time Temperature Precipitation Wind Pressure Humidity
00:00 +2°C° 0 mm 2 mps 709 mmHg 82%
01:00 +2°C° 0 mm 2 mps 709 mmHg 80%
02:00 +2°C° 0 mm 2 mps 709 mmHg 80%
03:00 +1°C° 0 mm 2 mps 709 mmHg 79%
04:00 +2°C° 0 mm 1 mps 709 mmHg 78%
05:00 +2°C° 0 mm 1 mps 709 mmHg 78%
06:00 +1°C° 0 mm 1 mps 709 mmHg 79%
07:00 +1°C° 0 mm 1 mps 709 mmHg 79%
08:00 +3°C° 0 mm 1 mps 710 mmHg 74%
09:00 +4°C° 0 mm 2 mps 710 mmHg 69%
10:00 +5°C° 0 mm 2 mps 710 mmHg 64%
11:00 +5°C° 0 mm 3 mps 710 mmHg 66%
12:00 +5°C° 0 mm 4 mps 709 mmHg 67%
13:00 +6°C° 0 mm 4 mps 709 mmHg 69%
14:00 +5°C° 0.4 mm 4 mps 708 mmHg 77%
15:00 +5°C° 0.4 mm 3 mps 707 mmHg 85%
16:00 +4°C° 0.4 mm 3 mps 706 mmHg 93%
17:00 +5°C° 0.2 mm 3 mps 706 mmHg 93%
18:00 +5°C° 0.2 mm 4 mps 706 mmHg 93%
19:00 +5°C° 0.2 mm 4 mps 705 mmHg 93%
20:00 +5°C° 0.3 mm 4 mps 705 mmHg 92%
21:00 +5°C° 0.3 mm 4 mps 705 mmHg 92%
22:00 +5°C° 0.3 mm 4 mps 705 mmHg 92%
23:00 +5°C° 0.3 mm 4 mps 705 mmHg 91%

Day after tomorrow, 18 January, Monday

Time Temperature Precipitation Wind Pressure Humidity
00:00 +5°C° 0.3 mm 4 mps 705 mmHg 90%
01:00 +5°C° 0.3 mm 4 mps 705 mmHg 89%
02:00 +5°C° 0.2 mm 4 mps 705 mmHg 90%
03:00 +4°C° 0.2 mm 4 mps 705 mmHg 90%
04:00 +4°C° 0.2 mm 4 mps 705 mmHg 91%
05:00 +3°C° 0.7 mm 3 mps 706 mmHg 91%
06:00 +3°C° 0.7 mm 3 mps 706 mmHg 92%
07:00 +3°C° 0.7 mm 3 mps 707 mmHg 92%
08:00 +4°C° 0.1 mm 3 mps 708 mmHg 88%
09:00 +5°C° 0.1 mm 3 mps 709 mmHg 83%
10:00 +5°C° 0.1 mm 3 mps 710 mmHg 78%
11:00 +7°C° 0.1 mm 3 mps 711 mmHg 74%
12:00 +7°C° 0.1 mm 3 mps 711 mmHg 70%
13:00 +8°C° 0.1 mm 3 mps 712 mmHg 66%
14:00 +7°C° 0 mm 3 mps 712 mmHg 67%
15:00 +7°C° 0 mm 3 mps 712 mmHg 69%
16:00 +5°C° 0 mm 3 mps 712 mmHg 70%
17:00 +5°C° 0 mm 2 mps 713 mmHg 74%
18:00 +4°C° 0 mm 2 mps 713 mmHg 77%
19:00 +3°C° 0 mm 2 mps 713 mmHg 81%
20:00 +3°C° 0 mm 1 mps 713 mmHg 80%
21:00 +3°C° 0 mm 1 mps 714 mmHg 78%
22:00 +2°C° 0 mm 1 mps 714 mmHg 77%
23:00 +2°C° 0 mm 1 mps 714 mmHg 75%

19 January, Tuesday

Time Temperature Precipitation Wind Pressure Humidity
00:00 +2°C° 0 mm 1 mps 714 mmHg 74%
01:00 +2°C° 0 mm 1 mps 714 mmHg 73%
02:00 +2°C° 0 mm 1 mps 714 mmHg 71%
03:00 +2°C° 0 mm 1 mps 714 mmHg 70%
04:00 +2°C° 0 mm 1 mps 714 mmHg 68%
05:00 +2°C° 0 mm 1 mps 714 mmHg 66%
06:00 +2°C° 0 mm 1 mps 714 mmHg 63%
07:00 +2°C° 0 mm 1 mps 714 mmHg 61%
08:00 +4°C° 0 mm 1 mps 715 mmHg 56%
09:00 +6°C° 0 mm 1 mps 716 mmHg 52%
10:00 +8°C° 0 mm 1 mps 716 mmHg 47%
11:00 +8°C° 0 mm 1 mps 716 mmHg 48%
12:00 +9°C° 0 mm 1 mps 716 mmHg 49%
13:00 +9°C° 0 mm 2 mps 716 mmHg 51%
14:00 +8°C° 0 mm 2 mps 716 mmHg 57%
15:00 +8°C° 0 mm 2 mps 715 mmHg 63%
16:00 +7°C° 0 mm 2 mps 715 mmHg 70%
17:00 +6°C° 0 mm 2 mps 715 mmHg 75%
18:00 +6°C° 0 mm 1 mps 715 mmHg 80%
19:00 +4°C° 0 mm 1 mps 715 mmHg 85%
20:00 +4°C° 0 mm 1 mps 715 mmHg 86%
21:00 +4°C° 0 mm 1 mps 715 mmHg 87%
22:00 +4°C° 0 mm 1 mps 715 mmHg 88%
23:00 +4°C° 0 mm 1 mps 715 mmHg 89%

20 January, Wednesday

Time Temperature Precipitation Wind Pressure Humidity
00:00 +3°C° 0 mm 2 mps 715 mmHg 89%
01:00 +3°C° 0 mm 2 mps 715 mmHg 89%
02:00 +3°C° 0 mm 2 mps 715 mmHg 89%
03:00 +3°C° 0 mm 2 mps 715 mmHg 89%
04:00 +3°C° 0 mm 2 mps 714 mmHg 89%
05:00 +3°C° 0 mm 2 mps 714 mmHg 89%
06:00 +3°C° 0 mm 2 mps 714 mmHg 89%
07:00 +4°C° 0 mm 2 mps 714 mmHg 89%
08:00 +5°C° 0 mm 2 mps 715 mmHg 86%
09:00 +5°C° 0 mm 3 mps 715 mmHg 84%
10:00 +8°C° 0 mm 3 mps 715 mmHg 81%
11:00 +8°C° 0 mm 3 mps 715 mmHg 78%
12:00 +8°C° 0 mm 4 mps 714 mmHg 76%
13:00 +10°C° 0 mm 4 mps 714 mmHg 73%
14:00 +10°C° 0.1 mm 4 mps 714 mmHg 76%
15:00 +10°C° 0.1 mm 4 mps 713 mmHg 78%
16:00 +8°C° 0.1 mm 4 mps 713 mmHg 81%
17:00 +7°C° 0 mm 4 mps 713 mmHg 85%
18:00 +7°C° 0 mm 3 mps 713 mmHg 90%
19:00 +5°C° 0 mm 3 mps 712 mmHg 94%
20:00 +5°C° 0 mm 3 mps 712 mmHg 94%
21:00 +5°C° 0 mm 3 mps 712 mmHg 94%
22:00 +5°C° 0 mm 3 mps 712 mmHg 95%
23:00 +5°C° 0 mm 3 mps 712 mmHg 94%

21 January, Thursday

Time Temperature Precipitation Wind Pressure Humidity
00:00 +5°C° 0 mm 3 mps 711 mmHg 94%
01:00 +5°C° 0 mm 4 mps 711 mmHg 93%
02:00 +5°C° 0 mm 4 mps 711 mmHg 93%
03:00 +5°C° 0 mm 4 mps 710 mmHg 93%
04:00 +5°C° 0 mm 4 mps 710 mmHg 93%
05:00 +5°C° 0 mm 4 mps 710 mmHg 93%
06:00 +5°C° 0 mm 4 mps 710 mmHg 93%
07:00 +5°C° 0 mm 4 mps 710 mmHg 93%
08:00 +7°C° 0 mm 4 mps 710 mmHg 87%
09:00 +8°C° 0 mm 4 mps 710 mmHg 82%
10:00 +9°C° 0 mm 5 mps 711 mmHg 77%
11:00 +9°C° 0 mm 5 mps 711 mmHg 75%
12:00 +11°C° 0 mm 4 mps 711 mmHg 72%
13:00 +11°C° 0 mm 4 mps 710 mmHg 70%
14:00 +11°C° 0 mm 3 mps 710 mmHg 70%
15:00 +11°C° 0 mm 3 mps 710 mmHg 70%
16:00 +12°C° 0 mm 2 mps 710 mmHg 70%
17:00 +9°C° 0 mm 2 mps 710 mmHg 74%
18:00 +8°C° 0 mm 2 mps 710 mmHg 79%
19:00 +6°C° 0 mm 2 mps 710 mmHg 83%
20:00 +6°C° 0 mm 2 mps 710 mmHg 82%
21:00 +6°C° 0 mm 2 mps 710 mmHg 81%
22:00 +6°C° 0 mm 2 mps 710 mmHg 80%
23:00 +6°C° 0 mm 2 mps 710 mmHg 78%
Show more